{"data":{"norad_id":53537,"intl_designator":"2022-101L","name":"STARLINK-4120","alt_names":[],"object_type":"PAYLOAD","status":"ACTIVE","operator":null,"country":"US","launch_date":"2022-08-19","launch_site_code":"AFETR","launch_vehicle":null,"mission":null,"orbit_class":"UNKNOWN","rcs_meters":null,"size_class":null,"mass_kg":null,"dimensions":null,"purposes":["comms"],"wikipedia_slug":null,"has_3d_model":false,"image_url":null,"decayed_at":null,"tle_current":{"epoch":"2026-05-24T13:46:21.839232Z","epoch_age_seconds":115373,"freshness":"FRESH","line1":"1 53537U 22101L   26144.57386388  .00001047  00000+0  83883-4 0  9999","line2":"2 53537  53.2168  93.4315 0001529  76.1080 284.0082 15.08833021207626","mean_motion":15.08833021,"eccentricity":0.0001529,"inclination_deg":53.2168,"raan_deg":93.4315,"arg_perigee_deg":76.108,"mean_anomaly_deg":284.0082,"bstar":8.3883e-5,"rev_number":20762,"period_min":95.437996117398,"perigee_km":538.70697388419,"apogee_km":540.82246823049,"semimajor_km":6917.9017210573,"source":"CELESTRAK","updated_at":"2026-05-25T13:38:17.441198Z"}}}